Time,TemperatureF,DewpointF,PressureIn,WindDirection,WindDirectionDegrees,WindSpeedMPH,WindSpeedGustMPH,Humidity,HourlyPrecipIn,Conditions,Clouds,dailyrainin,SoftwareType,DateUTC
2013-05-29 00:02:00,56.0,54.0,29.79,SW,219,0.0,2.0,94,0.00,,,0.12,,2013-05-29 04:02:00,
2013-05-29 00:12:00,56.0,54.0,29.80,SW,219,0.0,2.0,94,0.00,,,0.10,,2013-05-29 04:12:00,
2013-05-29 00:23:00,56.0,54.0,29.80,SW,219,0.0,2.0,94,0.00,,,0.10,,2013-05-29 04:23:00,
2013-05-29 00:33:00,56.0,54.0,29.80,SW,219,0.0,1.0,94,0.00,,,0.10,,2013-05-29 04:33:00,
2013-05-29 00:42:00,56.0,54.0,29.80,SW,219,0.0,1.0,94,0.00,,,0.10,,2013-05-29 04:42:00,
2013-05-29 00:52:00,56.0,54.0,29.80,SW,219,1.0,2.0,94,0.00,,,0.10,,2013-05-29 04:52:00,
2013-05-29 01:02:00,56.0,54.0,29.79,SW,219,0.0,0.0,94,0.00,,,0.10,,2013-05-29 05:02:00,
2013-05-29 01:12:00,56.0,54.0,29.79,SW,219,0.0,0.0,94,0.00,,,0.10,,2013-05-29 05:12:00,
2013-05-29 01:22:00,56.0,54.0,29.80,SW,219,3.0,4.0,94,0.00,,,0.09,,2013-05-29 05:22:00,
2013-05-29 01:32:00,56.0,55.0,29.81,SW,218,3.0,5.0,95,0.00,,,0.09,,2013-05-29 05:32:00,
2013-05-29 01:42:00,56.0,55.0,29.81,SW,218,3.0,5.0,95,0.00,,,0.09,,2013-05-29 05:42:00,
2013-05-29 01:52:00,56.0,55.0,29.80,SW,218,1.0,3.0,95,0.00,,,0.09,,2013-05-29 05:52:00,
2013-05-29 02:01:00,55.0,54.0,29.80,West,259,3.0,6.0,95,0.00,,,0.09,,2013-05-29 06:01:00,
2013-05-29 02:11:00,55.0,54.0,29.80,West,259,3.0,6.0,95,0.00,,,0.09,,2013-05-29 06:11:00,
2013-05-29 02:21:00,55.0,54.0,29.80,West,259,1.0,4.0,95,0.00,,,0.09,,2013-05-29 06:21:00,
2013-05-29 02:31:00,55.0,54.0,29.80,West,259,1.0,3.0,95,0.00,,,0.09,,2013-05-29 06:31:00,
2013-05-29 02:42:00,55.0,54.0,29.80,West,259,1.0,3.0,95,0.00,,,0.09,,2013-05-29 06:42:00,
2013-05-29 02:52:00,55.0,54.0,29.80,West,259,0.0,3.0,95,0.00,,,0.09,,2013-05-29 06:52:00,
2013-05-29 03:01:00,55.0,54.0,29.80,WSW,258,1.0,4.0,95,0.00,,,0.09,,2013-05-29 07:01:00,
2013-05-29 03:11:00,55.0,54.0,29.80,WSW,258,1.0,4.0,95,0.00,,,0.09,,2013-05-29 07:11:00,
2013-05-29 03:21:00,55.0,54.0,29.79,SW,234,2.0,5.0,95,0.00,,,0.09,,2013-05-29 07:21:00,
2013-05-29 03:34:00,55.0,54.0,29.79,SW,232,0.0,4.0,95,0.00,,,0.09,,2013-05-29 07:34:00,
2013-05-29 03:42:00,55.0,54.0,29.79,SW,232,0.0,4.0,95,0.00,,,0.09,,2013-05-29 07:42:00,
2013-05-29 03:52:00,55.0,54.0,29.79,NW,315,3.0,5.0,95,0.00,,,0.09,,2013-05-29 07:52:00,
2013-05-29 04:02:00,55.0,54.0,29.80,NW,309,0.0,3.0,95,0.00,,,0.09,,2013-05-29 08:02:00,
2013-05-29 04:11:00,55.0,54.0,29.80,NW,309,0.0,3.0,95,0.00,,,0.09,,2013-05-29 08:11:00,
2013-05-29 04:21:00,55.0,54.0,29.80,NW,307,0.0,2.0,95,0.00,,,0.08,,2013-05-29 08:21:00,
2013-05-29 04:32:00,55.0,54.0,29.80,SW,216,1.0,3.0,95,0.00,,,0.08,,2013-05-29 08:32:00,
2013-05-29 04:42:00,55.0,54.0,29.80,SW,216,1.0,3.0,95,0.00,,,0.08,,2013-05-29 08:42:00,
2013-05-29 04:52:00,55.0,54.0,29.81,SSW,207,2.0,4.0,95,0.01,,,0.09,,2013-05-29 08:52:00,
2013-05-29 05:01:00,55.0,54.0,29.82,SSW,205,4.0,6.0,95,0.01,,,0.09,,2013-05-29 09:01:00,
2013-05-29 05:11:00,55.0,54.0,29.82,SSW,205,4.0,6.0,95,0.01,,,0.09,,2013-05-29 09:11:00,
2013-05-29 05:21:00,55.0,54.0,29.82,SW,215,3.0,5.0,95,0.01,,,0.09,,2013-05-29 09:21:00,
2013-05-29 05:33:00,55.0,54.0,29.83,SW,216,0.0,4.0,95,0.01,,,0.09,,2013-05-29 09:33:00,
2013-05-29 05:42:00,55.0,54.0,29.83,SW,216,0.0,4.0,95,0.01,,,0.09,,2013-05-29 09:42:00,
2013-05-29 05:52:00,55.0,54.0,29.82,SW,229,1.0,3.0,95,0.00,,,0.09,,2013-05-29 09:52:00,
2013-05-29 06:02:00,55.0,54.0,29.82,WSW,238,0.0,3.0,95,0.00,,,0.09,,2013-05-29 10:02:00,
2013-05-29 06:12:00,55.0,54.0,29.82,WSW,238,0.0,3.0,95,0.00,,,0.09,,2013-05-29 10:12:00,
2013-05-29 06:22:00,55.0,54.0,29.81,WSW,238,0.0,2.0,95,0.00,,,0.08,,2013-05-29 10:22:00,
2013-05-29 06:32:00,55.0,54.0,29.81,WSW,238,0.0,1.0,95,0.00,,,0.08,,2013-05-29 10:32:00,
2013-05-29 06:42:00,55.0,54.0,29.81,WSW,238,0.0,1.0,95,0.00,,,0.08,,2013-05-29 10:42:00,
2013-05-29 06:53:00,54.0,53.0,29.82,WSW,238,0.0,3.0,95,0.00,,,0.08,,2013-05-29 10:53:00,
2013-05-29 07:02:00,54.0,53.0,29.82,WSW,238,0.0,0.0,95,0.00,,,0.08,,2013-05-29 11:02:00,
2013-05-29 07:12:00,54.0,53.0,29.82,WSW,238,0.0,0.0,95,0.00,,,0.08,,2013-05-29 11:12:00,
2013-05-29 07:22:00,55.0,54.0,29.83,WSW,238,0.0,1.0,95,0.00,,,0.08,,2013-05-29 11:22:00,
2013-05-29 07:32:00,55.0,54.0,29.83,SW,236,1.0,2.0,95,0.00,,,0.08,,2013-05-29 11:32:00,
2013-05-29 07:42:00,55.0,54.0,29.83,SW,236,1.0,2.0,95,0.00,,,0.08,,2013-05-29 11:42:00,
2013-05-29 07:52:00,55.0,54.0,29.83,SW,214,1.0,3.0,95,0.00,,,0.08,,2013-05-29 11:52:00,
2013-05-29 08:01:00,55.0,54.0,29.84,SW,214,0.0,3.0,95,0.00,,,0.08,,2013-05-29 12:01:00,
2013-05-29 08:11:00,55.0,54.0,29.84,SW,214,0.0,3.0,95,0.00,,,0.08,,2013-05-29 12:11:00,
2013-05-29 08:21:00,55.0,54.0,29.85,SW,214,0.0,4.0,95,0.00,,,0.08,,2013-05-29 12:21:00,
2013-05-29 08:32:00,55.0,54.0,29.85,SW,214,0.0,4.0,95,0.00,,,0.08,,2013-05-29 12:32:00,
2013-05-29 08:42:00,55.0,54.0,29.85,SW,214,0.0,4.0,95,0.00,,,0.08,,2013-05-29 12:42:00,
2013-05-29 08:52:00,55.0,54.0,29.85,SW,214,0.0,3.0,95,0.00,,,0.08,,2013-05-29 12:52:00,
2013-05-29 09:02:00,56.0,55.0,29.84,SW,214,0.0,2.0,95,0.00,,,0.08,,2013-05-29 13:02:00,
2013-05-29 09:11:00,56.0,55.0,29.84,SW,214,0.0,2.0,95,0.00,,,0.08,,2013-05-29 13:11:00,
2013-05-29 09:21:00,57.0,56.0,29.84,East,86,0.0,4.0,95,0.00,,,0.07,,2013-05-29 13:21:00,
2013-05-29 09:32:00,57.0,56.0,29.83,East,83,0.0,3.0,95,0.00,,,0.07,,2013-05-29 13:32:00,
2013-05-29 09:42:00,57.0,56.0,29.83,East,83,0.0,3.0,95,0.00,,,0.07,,2013-05-29 13:42:00,
2013-05-29 09:53:00,58.0,56.0,29.84,ESE,105,2.0,3.0,94,0.00,,,0.07,,2013-05-29 13:53:00,
2013-05-29 10:02:00,58.0,56.0,29.84,SE,127,0.0,3.0,93,0.00,,,0.07,,2013-05-29 14:02:00,
2013-05-29 10:11:00,58.0,56.0,29.84,SE,127,0.0,3.0,93,0.00,,,0.07,,2013-05-29 14:11:00,
2013-05-29 10:21:00,59.0,56.0,29.85,SE,133,1.0,4.0,91,0.00,,,0.07,,2013-05-29 14:21:00,
2013-05-29 10:32:00,59.0,57.0,29.86,South,169,2.0,5.0,92,0.00,,,0.07,,2013-05-29 14:32:00,
2013-05-29 10:41:00,59.0,57.0,29.86,South,169,2.0,5.0,92,0.00,,,0.07,,2013-05-29 14:41:00,
2013-05-29 10:52:00,59.0,57.0,29.86,South,169,0.0,3.0,93,0.00,,,0.07,,2013-05-29 14:52:00,
2013-05-29 11:01:00,59.0,57.0,29.86,South,169,0.0,2.0,92,0.00,,,0.07,,2013-05-29 15:01:00,
2013-05-29 11:11:00,59.0,57.0,29.86,SSE,165,0.0,5.0,92,0.00,,,0.07,,2013-05-29 15:11:00,
2013-05-29 11:21:00,59.0,57.0,29.86,SSE,165,0.0,5.0,92,0.00,,,0.07,,2013-05-29 15:21:00,
2013-05-29 11:33:00,61.0,58.0,29.85,East,95,0.0,4.0,91,0.00,,,0.07,,2013-05-29 15:33:00,
2013-05-29 11:42:00,61.0,58.0,29.85,East,95,0.0,4.0,91,0.00,,,0.07,,2013-05-29 15:42:00,
2013-05-29 11:53:00,61.0,58.0,29.85,ESE,109,3.0,7.0,90,0.00,,,0.07,,2013-05-29 15:53:00,
2013-05-29 12:03:00,62.0,59.0,29.84,ESE,110,4.0,7.0,91,0.00,,,0.07,,2013-05-29 16:03:00,
2013-05-29 12:12:00,62.0,59.0,29.84,ESE,110,4.0,7.0,91,0.00,,,0.07,,2013-05-29 16:12:00,
2013-05-29 12:22:00,62.0,59.0,29.84,ESE,122,4.0,10.0,90,0.00,,,0.07,,2013-05-29 16:22:00,
2013-05-29 12:32:00,62.0,59.0,29.84,SE,136,5.0,8.0,90,0.00,,,0.07,,2013-05-29 16:32:00,
2013-05-29 12:42:00,62.0,59.0,29.84,SE,136,5.0,8.0,90,0.00,,,0.07,,2013-05-29 16:42:00,
2013-05-29 12:52:00,63.0,60.0,29.83,East,85,4.0,9.0,90,0.00,,,0.07,,2013-05-29 16:52:00,
2013-05-29 13:02:00,64.0,61.0,29.83,ESE,103,6.0,9.0,89,0.00,,,0.07,,2013-05-29 17:02:00,
2013-05-29 13:12:00,64.0,61.0,29.83,ESE,103,6.0,9.0,89,0.00,,,0.07,,2013-05-29 17:12:00,
2013-05-29 13:22:00,64.0,61.0,29.83,ESE,103,6.0,9.0,89,0.00,,,0.07,,2013-05-29 17:22:00,
2013-05-29 13:32:00,65.0,61.0,29.83,East,100,6.0,9.0,87,0.00,,,0.07,,2013-05-29 17:32:00,
2013-05-29 13:42:00,65.0,61.0,29.83,East,100,6.0,9.0,87,0.00,,,0.07,,2013-05-29 17:42:00,
2013-05-29 13:52:00,67.0,63.0,29.83,ESE,120,6.0,10.0,86,0.00,,,0.07,,2013-05-29 17:52:00,
2013-05-29 14:01:00,67.0,62.0,29.82,SE,129,6.0,12.0,85,0.00,,,0.07,,2013-05-29 18:01:00,
2013-05-29 14:13:00,68.0,63.0,29.82,East,95,6.0,12.0,85,0.00,,,0.03,,2013-05-29 18:13:00,
2013-05-29 14:22:00,68.0,63.0,29.82,East,95,6.0,12.0,85,0.00,,,0.03,,2013-05-29 18:22:00,
2013-05-29 14:32:00,69.0,63.0,29.82,SE,124,9.0,12.0,82,0.00,,,0.03,,2013-05-29 18:32:00,
2013-05-29 14:42:00,69.0,63.0,29.82,SE,124,9.0,12.0,82,0.00,,,0.03,,2013-05-29 18:42:00,
2013-05-29 14:52:00,70.0,65.0,29.81,East,100,6.0,12.0,84,0.00,,,0.03,,2013-05-29 18:52:00,
2013-05-29 15:02:00,71.0,65.0,29.81,SSE,158,7.0,16.0,82,0.00,,,0.03,,2013-05-29 19:02:00,
2013-05-29 15:11:00,73.0,66.0,29.81,SSE,147,5.0,12.0,80,0.00,,,0.03,,2013-05-29 19:11:00,
2013-05-29 15:21:00,73.0,66.0,29.81,SSE,147,5.0,12.0,80,0.00,,,0.03,,2013-05-29 19:21:00,
2013-05-29 15:32:00,73.0,67.0,29.80,SSE,149,7.0,10.0,81,0.00,,,0.03,,2013-05-29 19:32:00,
2013-05-29 15:44:00,74.0,67.0,29.76,ESE,107,8.0,17.0,80,0.00,,,0.03,,2013-05-29 19:44:00,
2013-05-29 15:53:00,74.0,67.0,29.76,ESE,107,8.0,17.0,80,0.00,,,0.03,,2013-05-29 19:53:00,
2013-05-29 16:02:00,76.0,67.0,29.74,SE,130,12.0,17.0,74,0.00,,,0.03,,2013-05-29 20:02:00,
2013-05-29 16:11:00,76.0,67.0,29.74,SE,130,12.0,17.0,74,0.00,,,0.03,,2013-05-29 20:11:00,
2013-05-29 16:22:00,77.0,67.0,29.75,ESE,103,8.0,19.0,72,0.00,,,0.03,,2013-05-29 20:22:00,
2013-05-29 16:33:00,76.0,66.0,29.77,SE,124,5.0,10.0,71,0.00,,,0.03,,2013-05-29 20:33:00,
2013-05-29 16:42:00,76.0,66.0,29.77,SE,124,5.0,10.0,71,0.00,,,0.03,,2013-05-29 20:42:00,
2013-05-29 16:53:00,76.0,67.0,29.77,SSE,166,6.0,11.0,73,0.00,,,0.03,,2013-05-29 20:53:00,
2013-05-29 17:02:00,75.0,66.0,29.78,SSE,167,7.0,12.0,73,0.00,,,0.03,,2013-05-29 21:02:00,
2013-05-29 17:12:00,75.0,66.0,29.78,SSE,167,7.0,12.0,73,0.00,,,0.03,,2013-05-29 21:12:00,
2013-05-29 17:22:00,75.0,66.0,29.76,SE,136,5.0,9.0,74,0.00,,,0.01,,2013-05-29 21:22:00,
2013-05-29 17:33:00,74.0,66.0,29.75,ESE,123,3.0,6.0,75,0.00,,,0.01,,2013-05-29 21:33:00,
2013-05-29 17:43:00,74.0,66.0,29.75,ESE,123,3.0,6.0,75,0.00,,,0.01,,2013-05-29 21:43:00,
2013-05-29 17:53:00,74.0,66.0,29.76,SE,144,2.0,3.0,77,0.00,,,0.01,,2013-05-29 21:53:00,
2013-05-29 18:03:00,72.0,67.0,29.76,SE,144,0.0,1.0,83,0.03,,,0.04,,2013-05-29 22:03:00,
2013-05-29 18:12:00,72.0,67.0,29.76,SE,144,0.0,1.0,83,0.03,,,0.04,,2013-05-29 22:12:00,
2013-05-29 18:23:00,70.0,66.0,29.75,SE,140,8.0,14.0,88,0.13,,,0.14,,2013-05-29 22:23:00,
2013-05-29 18:33:00,68.0,64.0,29.70,SE,134,14.0,33.0,87,0.16,,,0.17,,2013-05-29 22:33:00,
2013-05-29 18:42:00,65.0,62.0,29.72,SE,139,8.0,19.0,90,0.18,,,0.20,,2013-05-29 22:42:00,
2013-05-29 18:53:00,65.0,62.0,29.72,SE,139,8.0,19.0,90,0.18,,,0.20,,2013-05-29 22:53:00,
2013-05-29 19:02:00,64.0,61.0,29.73,SSE,147,11.0,20.0,90,0.16,,,0.20,,2013-05-29 23:02:00,
2013-05-29 19:12:00,64.0,61.0,29.73,SSE,147,11.0,20.0,90,0.16,,,0.20,,2013-05-29 23:12:00,
2013-05-29 19:22:00,63.0,60.0,29.72,East,99,7.0,12.0,91,0.08,,,0.22,,2013-05-29 23:22:00,
2013-05-29 19:33:00,64.0,61.0,29.73,SE,126,5.0,11.0,91,0.05,,,0.22,,2013-05-29 23:33:00,
2013-05-29 19:42:00,63.0,60.0,29.74,ESE,120,8.0,13.0,91,0.02,,,0.22,,2013-05-29 23:42:00,
2013-05-29 19:53:00,63.0,60.0,29.74,ESE,120,8.0,13.0,91,0.02,,,0.22,,2013-05-29 23:53:00,
2013-05-29 20:01:00,63.0,61.0,29.75,SSE,149,8.0,14.0,92,0.02,,,0.22,,2013-05-30 00:01:00,
2013-05-29 20:11:00,63.0,61.0,29.75,SSE,149,8.0,14.0,92,0.02,,,0.22,,2013-05-30 00:11:00,
2013-05-29 20:21:00,63.0,61.0,29.75,ESE,118,8.0,13.0,92,0.00,,,0.22,,2013-05-30 00:21:00,
2013-05-29 20:31:00,63.0,61.0,29.74,ESE,111,9.0,15.0,92,0.00,,,0.22,,2013-05-30 00:31:00,
2013-05-29 20:42:00,63.0,61.0,29.74,ESE,111,9.0,15.0,92,0.00,,,0.22,,2013-05-30 00:42:00,
2013-05-29 20:52:00,63.0,61.0,29.74,SE,138,11.0,15.0,93,0.00,,,0.22,,2013-05-30 00:52:00,
2013-05-29 21:01:00,63.0,61.0,29.74,SE,129,7.0,17.0,92,0.00,,,0.22,,2013-05-30 01:01:00,
2013-05-29 21:11:00,63.0,61.0,29.74,SE,129,7.0,17.0,92,0.00,,,0.22,,2013-05-30 01:11:00,
2013-05-29 21:21:00,62.0,60.0,29.74,SE,128,14.0,20.0,93,0.01,,,0.23,,2013-05-30 01:21:00,
2013-05-29 21:32:00,62.0,60.0,29.73,SE,142,13.0,19.0,92,0.01,,,0.23,,2013-05-30 01:32:00,
2013-05-29 21:41:00,62.0,60.0,29.73,SE,142,13.0,19.0,92,0.01,,,0.23,,2013-05-30 01:41:00,
2013-05-29 21:52:00,62.0,60.0,29.73,SE,126,10.0,16.0,92,0.01,,,0.23,,2013-05-30 01:52:00,
2013-05-29 22:01:00,62.0,60.0,29.73,SE,126,10.0,16.0,92,0.01,,,0.23,,2013-05-30 02:01:00,
2013-05-29 22:11:00,62.0,60.0,29.73,SE,126,10.0,16.0,92,0.01,,,0.23,,2013-05-30 02:11:00,
2013-05-29 22:21:00,63.0,61.0,29.74,SSE,153,10.0,17.0,92,0.00,,,0.23,,2013-05-30 02:21:00,
2013-05-29 22:32:00,63.0,61.0,29.76,SSE,156,8.0,14.0,92,0.00,,,0.23,,2013-05-30 02:32:00,
2013-05-29 22:42:00,63.0,61.0,29.76,SSE,156,8.0,14.0,92,0.00,,,0.23,,2013-05-30 02:42:00,
2013-05-29 22:52:00,63.0,61.0,29.76,SSE,156,8.0,14.0,92,0.00,,,0.23,,2013-05-30 02:52:00,
2013-05-29 23:01:00,63.0,61.0,29.78,SSE,167,7.0,12.0,93,0.02,,,0.25,,2013-05-30 03:01:00,
2013-05-29 23:11:00,63.0,61.0,29.78,SSE,163,8.0,14.0,93,0.02,,,0.25,,2013-05-30 03:11:00,
2013-05-29 23:21:00,63.0,61.0,29.78,SSE,163,8.0,14.0,93,0.02,,,0.25,,2013-05-30 03:21:00,
2013-05-29 23:33:00,63.0,61.0,29.77,SSE,147,6.0,14.0,92,0.02,,,0.25,,2013-05-30 03:33:00,
2013-05-29 23:43:00,63.0,61.0,29.77,SSE,147,6.0,14.0,92,0.02,,,0.25,,2013-05-30 03:43:00,
2013-05-29 23:53:00,62.0,60.0,29.76,SSE,158,8.0,16.0,92,0.01,,,0.25,,2013-05-30 03:53:00,